Theta_e
330 318 312 312 316 314 311 309 295 298 298 291 292 295 297 312 313 312 316 320 316 322 325 327 325 324 320 319 321 323 323 318 320 311 306 325 339 340 342 342 341 341 342 343 343 344 345 348 349 350 350 350 350 350 350 349 349 350 350 350 349 349 349 349 349 349 349 349 349 349 349 349 348 348 348 349 348 349 348 349 348 349 348 349 348 345 348 347 347 346 346 345 345 345 345 344 345
317 313 313 314 314 311 304 308 296 294 293 290 295 296 298 313 315 314 315 318 319 322 327 327 326 326 326 325 325 325 322 325 326 325 329 336 339 338 341 342 341 341 341 343 342 341 343 346 349 349 350 350 350 350 349 349 350 349 350 349 350 349 349 349 348 348 349 348 348 348 349 349 349 348 348 348 348 348 348 348 348 348 348 348 348 348 346 346 347 346 346 346 346 345 344 345 345
321 316 315 315 312 309 308 305 295 292 291 289 292 307 313 311 312 317 319 321 324 326 327 326 327 326 324 325 320 320 314 328 329 330 330 337 333 335 341 342 342 342 342 342 341 341 342 346 348 349 349 349 348 350 349 350 349 349 349 348 348 348 348 348 348 348 347 347 348 348 348 348 348 348 348 348 348 348 347 347 348 347 347 348 347 348 348 347 347 346 345 346 346 345 347 346 345
322 317 316 314 310 309 300 298 294 292 291 290 302 310 311 313 315 318 321 323 324 326 326 323 321 327 323 318 320 326 323 323 329 330 328 332 333 337 340 342 345 342 341 342 341 342 343 346 348 348 348 349 349 349 349 349 348 348 348 349 348 348 348 348 348 347 347 347 347 347 348 347 348 347 347 347 347 347 347 347 346 346 347 346 347 347 347 347 346 346 345 345 346 346 346 345 345
316 318 314 313 307 304 301 297 295 293 291 290 300 309 312 315 316 319 321 323 324 324 323 322 320 325 327 324 327 319 320 328 329 333 330 334 337 337 340 342 342 342 341 341 342 341 343 348 348 347 348 348 349 349 349 349 349 348 348 348 348 347 347 347 347 347 347 347 346 346 347 347 347 347 347 347 346 346 346 346 346 346 346 346 345 346 345 346 345 345 345 345 345 345 345 345 345
313 312 314 313 306 308 301 295 293 293 294 295 306 309 314 317 317 319 320 323 323 324 325 323 319 320 320 324 328 323 328 318 328 330 333 333 337 340 339 341 339 340 341 341 341 341 342 347 347 347 347 348 348 349 348 348 348 348 348 347 347 347 347 347 346 346 346 346 346 346 346 346 346 346 346 346 346 346 346 346 346 346 346 346 345 345 345 345 345 344 342 344 344 344 344 344 345
307 308 308 309 306 304 293 292 291 293 305 307 308 313 316 317 319 319 319 320 323 324 325 321 324 322 318 325 327 331 333 333 330 330 336 336 337 338 338 339 339 339 340 340 341 341 343 347 347 347 347 347 348 347 347 347 347 347 347 347 347 347 347 347 347 346 346 346 346 346 345 346 346 346 345 345 346 346 346 346 345 345 346 346 346 345 345 345 344 344 343 342 343 344 344 344 344
316 306 305 299 297 298 293 291 292 292 305 312 314 315 316 318 319 318 317 318 316 317 322 324 324 320 318 330 318 330 332 332 331 335 336 337 337 338 338 337 338 338 339 339 340 343 345 347 347 346 346 346 347 346 346 346 346 346 347 347 347 346 346 346 346 346 346 346 346 346 345 345 345 345 345 345 345 345 345 345 345 345 345 345 346 346 345 345 345 345 344 342 340 342 344 344 344
308 306 306 299 294 297 292 293 293 300 309 314 315 321 321 319 319 318 316 318 319 321 321 321 322 315 317 321 320 328 330 333 335 337 335 336 335 337 336 338 337 336 338 340 340 340 342 347 346 346 346 346 346 346 346 347 347 347 347 347 346 346 346 346 346 346 345 346 346 345 345 345 345 345 345 345 345 345 345 345 346 346 346 346 346 346 345 346 345 345 345 343 342 342 341 343 343
306 305 297 295 294 293 291 291 295 304 308 312 314 315 317 318 318 319 317 316 317 319 319 322 322 316 320 317 321 326 327 331 332 333 334 334 336 337 336 338 339 338 338 339 338 340 342 347 346 346 345 345 345 345 346 347 347 347 347 347 346 346 346 346 346 345 345 345 345 345 345 344 345 345 346 346 346 346 346 346 346 346 346 346 346 347 345 346 346 346 346 345 344 343 343 343 343
299 304 302 295 291 290 290 296 302 306 310 314 315 318 318 319 319 317 317 317 320 317 320 322 318 317 319 319 320 331 331 331 329 329 335 337 336 334 335 337 338 338 338 338 339 340 340 342 347 346 346 346 346 346 347 347 347 347 346 346 346 346 346 346 346 346 346 346 345 344 344 345 345 346 346 346 346 345 346 345 345 345 345 345 345 345 346 346 346 347 346 346 346 344 344 345 345
295 296 298 291 290 291 290 301 304 307 311 313 312 317 318 318 319 315 315 314 316 316 317 323 315 321 317 318 321 328 330 330 330 333 335 335 335 337 337 338 338 338 338 338 340 339 340 341 343 346 347 347 347 347 347 347 347 346 346 346 346 345 345 345 346 346 346 345 344 344 344 345 346 346 346 346 345 344 344 344 344 344 343 343 343 344 344 344 344 345 346 346 347 346 346 346 346
297 297 295 293 289 290 293 303 304 308 307 310 312 318 321 318 315 316 316 316 317 315 315 321 323 321 314 318 326 329 326 327 330 334 334 334 335 335 335 335 337 337 337 339 337 336 337 339 340 342 345 347 347 347 347 347 347 346 347 346 344 345 345 345 345 344 344 344 345 345 345 346 346 346 345 345 344 343 343 343 343 343 343 343 343 343 343 344 344 344 344 344 345 346 347 347 347
299 297 296 294 292 292 298 300 302 303 304 311 315 319 320 317 319 319 317 314 315 314 320 325 324 322 317 321 322 323 326 331 333 334 334 335 335 335 335 335 335 335 336 337 336 336 337 339 341 340 341 341 341 344 346 347 345 345 344 345 346 345 345 345 345 345 344 343 343 344 345 345 346 346 345 344 344 343 342 342 343 343 343 344 345 345 345 345 345 346 346 345 345 345 346 347 348
300 300 298 294 289 291 301 299 302 302 302 311 317 317 317 320 321 320 317 314 315 324 326 329 324 318 310 316 316 322 327 331 333 334 334 335 334 333 334 334 334 332 335 336 336 336 336 338 339 338 339 338 338 338 338 343 344 346 344 346 346 345 344 345 345 344 344 344 344 345 345 345 345 345 344 343 344 344 343 343 344 344 344 345 338 336 336 336 336 340 345 347 347 346 346 346 347
301 297 296 293 293 295 300 302 304 304 304 314 316 317 316 318 321 317 319 321 319 326 326 318 327 316 318 317 319 327 330 330 331 334 332 331 331 330 332 332 331 332 333 335 335 336 337 337 337 338 337 336 336 337 337 337 344 346 346 346 345 345 344 345 344 343 343 344 345 344 343 345 346 343 344 343 345 343 345 342 337 337 335 333 336 336 337 338 337 338 337 341 344 346 347 348 348
302 300 292 290 296 300 302 300 301 299 307 313 317 317 312 313 320 322 326 326 320 320 322 323 322 327 323 324 327 328 330 333 333 329 328 326 326 327 328 328 330 330 332 332 334 335 336 337 337 337 337 336 337 337 336 337 343 345 346 345 344 344 343 343 343 343 342 345 344 343 344 338 337 337 337 339 338 338 337 332 334 335 334 335 336 337 337 338 337 337 336 333 333 332 332 338 346
300 294 289 297 298 302 306 304 305 310 310 313 315 316 314 311 318 320 324 321 320 321 320 323 326 325 327 328 329 330 331 329 328 325 324 324 323 324 324 325 327 326 329 331 333 335 335 336 337 336 334 335 336 337 340 340 343 342 337 337 340 343 341 343 342 339 343 335 343 338 338 342 338 335 338 337 330 333 331 334 333 334 335 335 335 335 335 336 335 335 335 332 332 330 328 322 335
296 294 297 298 302 307 310 310 312 311 311 315 317 317 315 313 317 319 316 315 316 316 319 321 321 324 326 328 328 327 327 327 327 325 323 323 323 323 323 323 325 327 327 330 330 333 334 335 335 335 334 334 334 335 339 339 338 336 336 337 341 341 335 331 327 329 326 327 328 328 333 331 333 333 331 332 331 332 330 333 334 334 334 335 334 332 332 333 332 333 332 331 330 327 315 315 320
300 299 299 302 309 309 311 314 313 315 316 314 314 315 315 315 317 321 315 313 315 314 314 318 318 319 323 325 325 325 325 325 326 324 323 324 324 324 323 324 325 327 328 329 331 333 335 333 336 335 337 335 334 333 338 337 335 335 335 335 335 330 325 325 323 324 323 324 325 325 324 326 324 324 332 332 330 321 322 328 331 330 330 331 332 325 327 329 328 328 328 328 324 319 313 313 315
306 305 298 305 310 308 312 318 317 317 318 315 314 315 314 315 317 317 315 311 310 313 316 317 317 319 321 322 322 323 323 323 323 324 323 322 325 323 325 326 327 327 329 332 332 331 332 335 336 335 336 336 336 332 332 328 323 322 323 326 328 324 322 321 321 322 323 323 324 324 322 323 322 320 320 320 319 319 318 318 318 317 318 318 329 317 317 318 319 317 317 320 315 316 314 314 315
311 308 309 310 312 310 315 317 318 317 318 315 313 312 312 317 317 314 313 308 305 310 316 319 320 321 321 320 321 323 322 322 322 322 322 323 324 324 327 328 329 329 331 329 330 332 334 336 334 333 334 334 332 323 325 328 323 322 323 324 323 323 322 321 320 321 321 322 323 325 323 320 320 319 319 319 319 318 318 317 317 317 317 318 322 317 317 317 316 316 316 316 315 315 314 315 316
306 310 311 313 313 311 315 317 316 317 315 313 311 314 316 314 313 315 315 311 314 320 321 322 322 323 323 323 322 321 320 319 320 320 321 322 324 326 327 327 326 326 329 331 331 332 334 333 333 333 330 327 324 322 320 320 320 321 324 325 322 321 321 320 319 320 321 322 322 326 322 319 319 318 318 318 317 318 317 317 316 317 316 317 319 317 317 317 316 316 316 315 315 316 315 317 316
310 306 312 313 315 313 316 315 316 315 314 312 315 317 313 313 309 316 315 316 318 321 323 323 323 324 323 320 320 320 320 320 321 322 323 324 325 325 327 327 328 327 329 331 332 331 332 330 332 329 322 321 321 321 319 319 319 321 324 325 324 327 320 319 319 320 321 321 323 323 325 320 318 317 317 317 316 316 317 317 317 316 316 317 318 318 317 316 316 316 316 315 315 315 315 318 316
310 309 313 314 316 315 316 315 314 314 314 316 315 312 310 313 313 317 315 317 319 321 322 322 321 321 321 320 319 319 319 321 322 323 324 324 326 327 327 328 328 329 329 330 330 331 331 335 330 325 322 321 320 320 319 318 319 320 321 321 323 327 318 318 318 319 319 321 321 321 323 319 318 317 316 317 316 316 315 316 315 315 316 316 317 316 317 316 316 316 316 314 315 313 313 317 315
315 312 314 314 314 315 315 315 313 314 314 315 312 311 314 315 318 314 316 317 320 321 320 319 319 319 318 319 319 319 319 320 321 322 324 325 325 324 324 326 327 328 328 329 329 329 328 326 325 323 322 321 321 319 318 318 318 318 318 320 321 324 318 320 319 318 318 318 318 320 322 321 318 315 316 316 316 316 316 316 315 315 315 316 316 315 317 316 315 316 316 315 316 313 312 315 314
316 314 314 314 314 315 316 312 312 315 314 313 311 310 311 314 315 308 317 318 319 318 317 317 317 317 318 318 318 320 320 321 322 322 323 323 323 324 324 326 328 328 329 328 328 326 325 322 321 322 322 325 320 319 318 317 318 318 319 317 318 318 319 319 318 318 317 318 319 319 320 322 318 316 315 315 315 315 316 317 317 316 315 316 317 316 317 316 315 315 316 314 314 313 312 313 314
315 314 314 314 314 314 313 312 312 312 311 311 311 309 312 313 311 306 315 318 317 315 315 316 317 317 317 319 319 320 320 321 323 321 321 321 321 323 324 326 327 327 326 325 324 323 322 321 321 322 321 323 321 319 321 318 317 318 318 317 317 318 320 317 317 318 320 318 319 318 319 319 321 316 316 316 315 314 314 315 316 317 317 317 317 316 316 315 315 315 316 315 314 313 312 312 313
314 314 308 311 313 311 313 310 312 312 310 314 313 307 306 308 308 315 316 317 316 314 314 314 315 316 317 316 318 320 320 321 322 321 320 321 323 324 324 326 327 324 324 324 324 323 321 320 320 319 319 319 318 317 316 315 316 317 318 317 319 320 318 318 316 316 317 318 319 318 319 320 321 317 316 317 320 314 314 315 316 318 317 318 317 316 315 314 314 314 314 315 314 311 311 311 313
314 312 308 307 303 303 313 315 313 311 313 314 312 293 299 308 311 313 316 315 315 313 313 314 313 315 315 316 317 318 319 319 319 320 322 323 324 325 324 326 326 324 325 324 325 325 327 325 323 321 319 318 319 317 316 315 316 318 318 316 318 316 316 316 318 316 318 317 318 318 318 320 318 318 317 316 316 316 316 316 316 317 317 317 317 316 313 313 312 312 313 312 315 310 308 310 310
304 309 305 298 298 297 311 312 312 308 313 314 311 295 299 307 310 313 315 315 314 312 312 313 314 315 315 316 316 317 319 320 321 324 324 325 325 325 325 326 326 326 325 324 324 322 323 323 324 322 322 318 318 316 316 317 315 315 315 315 315 314 315 314 315 316 315 316 316 317 318 319 317 317 317 316 316 315 315 315 316 316 317 317 315 315 312 311 312 311 313 311 309 308 306 309 309
305 300 296 300 295 297 308 315 311 306 312 315 305 295 300 307 309 313 315 314 314 312 312 313 314 315 315 316 317 317 318 321 323 324 326 325 325 323 324 324 324 323 323 323 325 323 322 322 322 320 319 318 317 317 314 315 315 316 318 321 315 314 314 314 314 315 315 314 316 316 317 320 318 318 316 315 315 315 314 315 315 316 316 315 314 313 312 310 311 311 311 310 308 307 305 304 307
302 297 295 296 296 298 304 311 313 313 313 313 308 296 302 304 310 312 314 314 313 312 312 313 313 314 316 317 316 316 318 319 321 322 324 323 322 323 324 323 323 323 323 323 321 321 321 322 322 319 318 318 317 316 315 314 314 314 314 314 314 314 313 313 314 315 315 315 314 315 316 319 317 318 318 317 317 316 315 316 315 316 316 314 312 310 309 310 309 311 309 312 309 306 304 302 303
296 299 294 298 297 297 297 307 312 313 310 305 308 302 301 304 310 311 312 313 312 311 311 311 312 313 315 316 317 317 318 318 318 320 320 321 321 322 324 328 324 324 325 322 321 320 319 319 318 318 318 319 316 315 314 314 314 314 314 316 319 313 314 314 314 314 314 314 315 316 317 318 318 317 318 318 317 319 316 316 316 316 314 313 311 309 308 309 308 309 309 309 309 306 303 301 300
294 295 295 297 299 301 299 301 306 311 310 305 305 304 304 307 308 310 311 313 312 311 311 312 313 313 314 316 317 318 318 317 317 317 318 319 320 320 321 323 323 323 322 321 320 319 319 322 324 324 320 319 318 318 318 314 312 312 312 312 312 313 313 313 314 313 313 314 314 317 319 318 319 316 317 318 318 316 317 316 316 315 314 312 310 308 307 308 308 308 309 308 309 306 302 301 300
300 300 297 296 295 297 298 304 310 310 304 303 304 301 304 306 307 309 311 312 311 311 311 312 313 313 313 315 316 317 318 317 316 316 318 318 317 318 318 321 321 321 321 320 321 321 320 317 316 318 319 318 317 316 315 313 312 312 310 311 311 313 313 318 313 313 313 315 319 316 316 316 318 318 316 316 317 317 316 316 316 316 313 311 310 308 307 306 305 305 307 308 306 304 303 302 301
305 303 301 298 298 300 305 306 309 311 305 302 304 305 305 306 307 309 310 310 309 310 310 311 312 312 312 314 316 317 316 316 315 316 317 317 317 317 317 319 320 320 320 320 319 319 318 317 317 314 315 315 314 313 313 311 311 310 310 310 309 310 313 315 314 314 315 316 316 317 317 317 317 319 318 316 314 318 317 316 315 314 313 312 310 308 307 306 306 305 305 306 306 302 301 302 301
304 302 300 298 300 296 304 305 309 310 303 301 305 305 305 306 308 309 309 309 308 309 310 310 312 312 311 313 315 316 317 316 315 314 315 314 314 314 315 318 321 317 318 319 318 318 316 316 315 314 314 314 314 314 314 312 310 310 309 310 310 311 312 311 312 312 315 318 316 316 317 316 316 317 320 317 316 314 315 315 315 313 312 311 311 311 308 310 304 303 303 301 303 302 299 301 301
303 299 298 297 297 303 307 307 309 311 305 299 304 302 303 306 308 309 308 308 309 311 312 312 312 311 311 313 314 315 315 313 312 313 313 313 313 314 315 316 316 317 317 316 316 316 315 314 314 315 314 314 314 316 313 312 312 312 310 309 309 310 310 313 312 316 315 314 314 315 316 314 314 315 316 320 316 315 314 315 315 313 312 313 307 306 304 303 303 302 302 300 299 300 301 302 301
300 298 295 294 299 299 295 305 307 309 304 301 302 300 300 305 307 308 308 309 309 311 313 312 312 311 312 313 315 315 314 311 311 311 311 312 313 312 313 314 314 315 316 315 315 316 317 316 312 313 313 314 314 317 316 312 313 312 311 310 312 310 311 318 313 314 313 313 314 315 316 315 315 315 316 318 316 314 313 313 313 311 311 311 307 304 303 301 302 302 301 302 300 296 297 298 303
302 301 298 297 300 300 299 301 306 307 307 308 303 297 298 302 302 304 307 310 311 312 313 312 312 313 315 316 316 316 313 311 311 311 311 312 311 311 313 314 314 314 314 313 314 316 316 313 313 313 312 312 314 321 315 315 315 312 312 313 314 312 312 310 309 309 314 317 315 314 314 316 316 316 316 318 318 313 312 312 310 308 307 308 308 304 302 301 301 301 301 301 299 297 296 296 299
299 302 301 302 304 303 304 305 302 295 295 302 301 286 289 297 303 304 306 307 308 311 310 310 311 313 315 315 315 316 313 313 312 311 311 312 311 311 312 313 312 312 312 312 315 315 314 313 314 313 313 313 315 315 316 316 315 311 309 309 308 308 308 307 307 308 310 311 312 315 315 316 317 317 316 316 316 314 311 310 309 307 305 306 307 305 303 301 301 301 302 300 300 299 297 297 296
295 299 307 306 306 305 303 301 298 289 289 299 302 288 283 292 300 303 304 306 306 309 310 310 311 313 314 314 315 313 311 311 312 311 312 311 311 311 311 311 311 312 312 313 314 314 314 314 313 313 313 313 316 316 317 317 312 310 310 309 308 307 307 308 309 309 311 313 313 313 314 315 316 316 316 315 313 313 310 310 309 307 305 304 307 303 302 300 301 302 303 301 300 302 298 296 296
294 305 307 307 306 303 302 301 298 293 302 303 304 294 286 287 297 304 306 305 306 306 308 309 310 313 314 314 315 312 310 310 310 310 310 311 310 311 310 310 311 312 311 312 313 314 314 315 314 314 316 319 317 318 316 316 312 310 310 310 311 308 308 309 310 312 313 315 313 313 314 315 317 316 315 314 314 313 310 309 308 306 304 305 305 302 301 300 300 302 303 301 302 301 299 297 296
298 306 307 305 305 305 304 301 297 298 296 290 296 302 291 286 293 304 305 302 303 305 307 308 310 312 313 314 314 311 311 311 311 310 310 310 310 311 310 310 311 311 311 312 314 314 315 315 315 315 315 316 313 316 315 314 315 311 311 311 310 309 308 310 314 317 314 314 313 313 314 315 315 315 314 313 313 312 313 308 307 305 303 303 306 302 301 300 299 298 298 299 299 299 302 301 297
306 308 309 308 308 306 304 300 300 298 293 287 293 298 287 284 291 299 303 302 302 304 306 308 310 311 313 314 313 312 312 312 312 311 310 311 311 311 311 311 310 310 312 315 314 314 314 313 316 316 314 312 312 313 314 312 313 315 310 309 308 309 313 312 310 310 311 311 313 313 313 314 314 313 313 313 312 311 309 308 306 305 304 305 305 301 300 300 299 298 299 299 299 298 298 300 299
310 309 306 304 303 301 302 300 295 291 285 289 297 299 294 283 289 298 298 300 304 306 307 309 311 312 314 314 314 312 312 312 311 311 311 311 312 311 310 309 309 311 313 313 313 313 313 314 315 314 313 312 314 313 313 313 312 311 311 309 309 309 310 309 308 310 312 310 311 311 312 314 314 312 312 312 310 310 310 311 306 304 304 307 303 300 299 299 300 299 298 298 298 298 297 296 298
308 302 300 300 297 297 294 292 293 287 283 291 298 300 299 286 287 297 304 306 307 307 306 308 309 311 313 314 315 313 313 312 312 311 310 310 310 309 309 309 310 311 312 313 313 313 314 314 314 312 312 313 313 314 313 312 312 311 311 310 310 310 311 310 308 309 311 311 310 311 312 313 312 312 311 310 309 308 307 304 306 303 303 299 299 300 299 299 300 300 298 298 297 297 298 298 295
303 300 298 292 285 287 286 287 285 283 283 291 300 301 294 293 296 299 304 306 307 309 310 310 311 312 313 314 315 314 314 313 312 311 310 309 309 308 308 309 310 310 311 312 313 313 313 314 313 312 312 313 313 313 312 313 312 312 313 312 311 311 311 311 309 310 311 310 311 313 313 312 311 310 310 310 309 307 306 303 302 301 302 302 301 300 299 298 298 299 300 298 297 296 295 295 294
300 297 290 285 282 282 278 279 282 283 291 298 298 301 291 293 296 302 304 307 309 310 311 312 313 313 313 314 315 314 313 313 312 311 310 309 309 309 309 310 311 311 311 313 313 314 314 314 313 312 313 313 313 313 313 313 313 313 314 313 312 314 312 312 311 311 312 312 314 314 313 312 311 310 310 309 309 307 305 304 302 301 301 302 303 301 301 300 299 298 298 298 298 296 296 295 294
297 300 296 290 284 282 280 281 280 280 283 292 301 293 287 289 291 300 305 308 309 311 312 313 314 314 315 316 316 314 313 312 313 311 310 309 309 309 310 310 311 311 311 312 313 314 314 313 313 314 313 313 314 313 314 313 313 314 314 315 313 314 313 314 312 314 313 313 312 313 313 312 311 310 309 309 308 305 304 303 302 300 300 299 299 299 301 299 299 298 300 299 299 297 297 297 294
300 303 298 293 291 289 284 285 283 286 287 287 292 288 292 292 299 304 306 307 308 310 311 312 312 314 314 314 314 313 312 312 313 311 309 309 310 310 311 310 312 311 312 312 314 314 314 313 314 314 313 313 315 316 314 313 314 315 313 314 313 315 318 315 316 317 314 315 315 315 314 313 312 311 311 309 307 304 303 302 302 300 299 299 299 298 298 299 299 297 295 296 296 302 296 295 294
296 299 292 294 299 296 285 289 292 289 285 285 285 292 292 297 298 302 305 306 306 307 309 310 310 312 313 313 314 313 312 312 312 311 310 309 310 311 311 310 311 312 312 312 314 314 314 314 315 314 313 314 314 317 315 314 314 313 314 316 316 317 316 314 314 313 314 316 316 315 313 312 311 310 310 308 305 303 301 301 300 299 298 298 298 298 298 297 297 297 296 295 294 294 297 295 294
297 291 296 301 303 299 292 285 283 282 282 282 290 289 288 289 287 298 302 302 304 305 307 309 309 310 311 313 313 312 312 313 313 312 311 310 311 311 311 311 312 313 313 313 314 315 315 315 316 314 314 314 314 316 317 316 315 313 313 314 315 316 315 315 315 314 316 318 316 315 313 312 310 311 311 310 305 304 304 305 299 299 299 299 298 297 297 296 296 296 295 295 295 293 293 294 296
299 294 303 296 286 289 289 286 281 280 280 278 283 290 288 289 288 296 299 301 302 303 306 307 307 310 311 312 313 313 313 313 312 311 310 310 310 312 311 311 311 313 314 314 315 315 316 316 316 316 315 316 316 317 317 318 317 316 316 316 315 316 315 316 315 316 317 317 316 315 313 312 311 311 311 307 305 302 301 300 298 297 297 298 298 298 297 295 295 295 297 294 294 293 292 292 294
305 303 300 301 294 287 289 288 287 283 279 280 281 285 286 293 291 299 300 302 303 303 304 306 307 310 311 312 312 312 312 313 313 312 311 311 311 312 312 311 311 313 313 314 314 315 315 316 317 316 316 317 317 317 318 317 318 318 319 317 317 317 318 316 316 317 316 317 317 315 313 311 311 312 307 306 303 301 300 299 298 297 297 296 296 297 297 296 294 294 294 294 293 293 293 292 292
296 296 293 298 298 298 294 295 291 286 280 277 278 279 284 289 296 301 302 303 304 305 305 306 308 310 311 312 312 312 313 313 313 313 312 311 311 312 313 312 312 313 314 315 314 314 315 316 316 317 316 316 317 317 317 317 318 317 319 317 317 318 317 318 317 316 317 317 315 314 312 312 312 308 307 304 302 300 299 299 298 299 297 296 295 295 296 295 295 295 294 294 293 293 292 292 294
296 295 293 294 291 293 289 284 292 292 285 282 281 278 283 293 303 304 304 305 306 307 307 307 308 310 311 312 312 313 314 314 314 314 313 312 312 312 313 313 312 313 313 314 314 315 315 315 316 317 317 316 317 317 317 318 318 318 317 317 316 318 318 318 318 316 317 316 314 313 312 310 307 306 304 302 300 300 299 298 297 296 296 296 296 295 295 295 295 294 294 297 295 293 291 291 291
Wind_Speed
3 2 3 2 0 1 3 1 0 1 1 2 2 1 1 4 6 5 7 3 10 6 5 13 14 7 7 8 14 11 9 4 2 2 3 2 2 5 5 4 3 2 3 2 2 3 4 6 8 9 10 10 10 10 10 10 10 10 10 11 11 11 11 11 10 10 10 10 10 11 11 10 10 10 10 10 10 9 9 9 9 9 9 9 8 8 8 7 7 6 6 6 6 8 7 7 7
1 2 3 1 0 2 1 0 1 1 2 3 6 3 0 5 13 9 10 12 8 6 8 12 14 15 15 13 10 11 12 9 6 5 5 4 4 4 3 3 2 5 2 2 3 3 3 3 8 9 10 10 10 10 10 10 11 11 11 11 11 11 12 11 11 10 10 10 10 11 11 11 10 10 10 11 10 10 10 10 10 10 10 10 9 9 7 8 8 7 7 7 7 7 5 7 7
1 4 3 3 2 1 0 1 0 1 2 3 3 4 3 13 12 10 12 11 12 10 9 10 8 6 6 6 13 8 3 4 6 6 5 5 6 3 3 3 3 4 2 2 2 2 2 4 8 9 9 10 10 10 10 10 11 11 11 11 11 12 11 11 11 10 10 10 10 11 11 11 11 11 11 11 11 11 11 11 11 11 10 10 9 8 8 8 8 7 7 7 7 7 8 8 7
2 1 0 1 1 2 1 1 2 2 2 4 2 2 4 12 11 10 7 9 8 4 3 4 6 6 5 14 8 8 6 2 3 4 4 2 3 4 2 2 3 3 2 2 2 1 1 4 8 9 9 9 9 10 10 10 10 11 10 11 11 11 11 11 10 10 10 10 10 11 11 11 11 11 11 11 11 11 11 11 11 11 10 10 10 9 9 8 8 7 7 7 7 7 7 7 6
2 1 1 2 3 0 1 2 1 3 1 3 4 2 5 10 11 11 8 6 7 7 6 6 6 4 8 7 3 1 2 3 5 4 2 2 3 3 1 1 3 3 2 2 2 2 2 7 8 8 9 9 9 10 10 10 10 10 10 10 11 11 11 11 11 11 10 10 10 10 11 11 11 10 10 10 10 10 11 11 11 10 10 10 10 9 8 8 8 7 7 7 7 7 7 6 5
3 1 1 2 0 1 1 1 2 0 5 2 5 3 5 9 12 12 10 10 9 7 5 5 6 4 5 5 3 2 2 1 2 3 2 2 2 3 3 3 4 2 2 2 2 1 1 7 8 8 8 9 9 10 10 10 10 10 10 10 10 10 10 11 11 10 10 10 10 10 10 10 10 10 10 10 10 10 10 11 10 11 10 10 9 9 8 8 8 7 7 7 7 6 6 5 4
1 2 1 1 1 1 2 1 2 0 7 2 3 4 5 7 9 11 9 8 6 8 6 10 13 10 9 2 4 4 6 3 2 2 2 3 3 3 3 2 2 3 2 2 1 2 3 7 7 7 8 9 9 9 10 10 10 10 10 10 10 10 10 10 10 10 10 10 10 10 10 10 10 10 10 10 10 10 10 10 10 10 10 9 9 9 8 8 7 7 7 6 6 6 4 4 4
0 0 1 1 1 1 0 2 1 1 4 5 3 6 5 6 6 4 3 3 2 1 1 6 5 9 7 2 4 3 7 6 7 3 4 4 4 2 4 2 3 3 2 1 1 1 5 7 7 8 8 8 8 8 9 9 9 10 9 9 9 9 10 9 10 10 10 10 10 10 10 10 10 10 10 10 11 10 10 10 10 9 9 9 8 8 7 7 8 7 6 6 5 5 4 4 4
2 0 1 3 1 0 0 2 2 0 5 7 10 9 8 6 4 8 10 4 4 3 2 4 3 9 3 8 5 4 5 5 4 6 7 6 4 2 1 1 4 3 3 3 3 3 3 7 8 7 8 7 8 8 8 8 9 9 9 9 9 9 9 9 9 10 10 10 10 10 10 10 10 10 11 11 11 11 10 10 10 9 9 8 8 8 7 7 7 7 7 6 5 5 5 5 6
1 1 1 1 2 2 1 5 5 2 4 6 7 7 6 3 8 9 8 7 6 7 3 3 3 13 10 10 5 3 4 6 2 6 5 3 1 1 2 2 4 3 3 2 2 1 1 7 8 8 7 8 7 8 8 8 8 9 9 9 9 9 9 8 9 9 10 10 10 10 10 10 10 10 10 10 10 10 9 9 9 9 8 8 8 9 9 9 8 7 7 6 6 5 6 6 6
0 0 1 1 2 1 1 2 4 3 7 5 9 8 5 5 8 5 4 6 0 4 6 9 11 9 6 5 3 2 8 5 1 3 3 2 1 2 2 2 3 3 3 3 3 3 3 2 8 8 7 7 8 8 8 8 9 9 9 9 8 8 8 8 9 10 10 10 11 11 11 10 9 9 9 9 9 8 8 8 8 8 8 9 9 9 9 9 9 8 8 7 7 6 6 7 7
1 0 0 1 1 1 1 6 4 5 7 6 4 5 2 5 3 4 4 8 3 3 2 1 5 7 7 5 3 6 7 5 2 3 2 3 2 2 1 2 3 4 4 3 3 3 3 3 3 7 8 7 7 7 7 8 8 8 8 8 8 9 9 9 10 10 10 10 11 10 11 10 9 9 9 9 8 8 7 7 7 8 8 8 9 9 9 9 9 9 9 8 8 8 7 8 7
1 0 0 1 2 1 1 7 4 6 2 3 1 1 1 5 5 6 5 4 2 6 5 4 12 2 4 4 3 6 6 2 1 1 3 2 0 1 2 3 4 4 4 3 4 4 4 3 3 3 5 9 7 7 7 8 8 8 8 10 10 10 10 11 11 11 10 11 10 10 9 10 10 9 9 8 8 7 7 7 7 8 8 8 8 9 9 9 9 9 8 9 9 10 10 9 8
3 4 3 2 0 2 3 2 2 5 2 2 1 1 2 2 1 1 5 6 5 4 1 4 4 10 6 6 6 5 4 4 3 3 3 3 2 2 4 3 4 3 3 3 3 3 3 3 4 4 5 4 3 6 7 9 9 9 11 11 9 8 9 11 10 10 10 9 9 9 9 9 8 8 7 8 8 8 7 8 8 9 10 10 11 12 10 10 10 10 9 8 8 9 10 10 10
4 1 0 1 3 2 1 5 4 5 3 2 2 1 2 2 1 1 6 8 3 1 0 4 2 2 6 7 3 4 6 5 2 5 6 4 5 3 3 3 3 3 3 3 3 3 4 3 4 4 3 2 3 3 4 4 9 9 10 9 7 8 8 8 9 10 9 9 8 8 8 6 7 7 8 7 9 8 8 7 8 8 10 12 14 14 14 14 14 13 12 9 8 9 10 10 10
4 2 1 1 2 3 1 5 2 6 0 1 2 6 10 3 4 1 3 1 2 3 4 1 4 1 5 5 6 8 8 5 4 6 6 6 4 3 3 3 3 3 2 3 3 3 3 3 2 3 2 1 1 2 2 2 4 7 8 8 6 6 8 7 7 8 8 7 6 7 7 5 6 5 8 6 9 10 9 9 11 11 13 14 12 13 14 15 15 15 15 13 11 10 10 11 11
2 1 2 2 3 2 0 2 4 4 3 4 4 4 4 1 1 3 2 5 8 6 7 5 1 3 6 6 10 9 7 6 6 6 7 5 3 3 2 3 3 3 2 3 3 3 2 2 2 2 2 1 1 1 1 1 1 5 4 6 7 7 9 9 9 7 7 6 6 6 5 3 3 3 5 5 11 7 14 13 15 14 14 14 14 15 15 15 15 14 14 14 14 14 14 11 11
3 3 5 3 2 5 1 3 3 6 6 3 2 3 12 5 1 3 4 9 8 8 10 6 11 8 9 9 8 8 7 7 4 6 5 4 2 3 2 2 3 3 3 3 3 3 2 2 1 0 1 1 1 2 2 2 3 4 3 4 4 5 8 9 7 6 7 5 9 6 5 3 4 4 4 9 7 9 10 15 14 15 15 16 16 16 16 15 14 13 13 13 13 13 12 7 7
3 2 5 4 1 0 1 2 9 5 4 4 4 1 3 5 5 2 5 2 5 9 6 5 9 8 8 8 7 7 6 6 5 6 7 5 3 3 2 2 2 3 3 2 1 2 2 2 1 0 0 0 2 2 2 2 3 2 2 4 4 7 8 9 7 7 6 7 7 7 6 6 6 6 5 9 8 12 10 14 14 14 15 16 16 15 15 15 14 13 14 13 12 11 7 6 6
1 8 5 2 2 3 3 4 4 7 10 9 6 3 5 3 1 2 4 5 3 9 8 6 9 10 10 9 7 6 6 5 5 6 5 3 3 3 3 3 3 1 1 1 1 2 1 2 3 1 1 2 3 3 2 3 3 3 4 5 5 5 6 6 6 7 7 7 7 6 6 6 5 4 9 13 10 6 7 11 14 13 13 14 16 9 11 13 13 12 13 13 8 5 5 5 5
1 6 2 3 2 6 4 8 8 7 6 6 4 2 5 3 0 3 7 7 2 0 2 4 10 8 9 7 6 5 6 6 5 6 8 3 2 2 3 2 2 1 1 1 1 1 2 2 1 1 2 3 3 3 4 6 6 7 6 5 5 5 5 6 6 7 7 7 7 6 5 5 5 5 6 6 6 6 6 7 7 7 6 7 10 7 7 8 8 8 7 8 6 6 6 6 6
5 2 2 6 5 9 4 7 8 7 6 8 4 7 3 0 6 3 3 7 3 3 1 3 6 7 9 9 6 5 6 6 6 7 7 5 2 2 4 5 3 2 1 2 1 1 2 1 1 2 2 3 4 5 4 4 6 7 6 5 6 5 6 6 6 6 6 6 6 6 6 6 6 6 6 7 6 6 7 6 6 6 6 6 6 6 6 7 7 7 6 7 6 6 6 6 5
6 3 4 4 6 9 2 6 3 7 4 5 3 1 2 5 3 3 6 4 0 2 2 5 5 6 6 7 7 7 6 6 5 8 7 4 4 2 2 3 3 3 0 1 1 1 1 2 2 2 4 5 3 3 4 6 7 6 6 6 6 6 6 6 6 6 6 6 6 5 6 6 6 6 6 6 7 6 6 6 5 5 6 6 6 6 7 6 6 7 6 6 6 7 7 6 6
10 3 4 7 10 10 7 8 7 7 10 5 2 5 6 5 7 3 7 2 2 3 4 6 5 5 6 6 4 6 5 5 5 4 4 6 5 3 2 2 2 2 1 1 0 0 1 1 2 5 6 5 4 6 7 6 6 7 6 6 6 5 5 6 6 6 5 6 5 5 4 5 5 6 6 6 5 5 5 5 5 6 6 6 6 6 7 7 7 6 6 7 7 6 7 7 6
10 6 5 8 10 8 8 8 9 10 9 6 10 8 2 5 5 2 4 3 2 4 6 6 5 6 7 7 5 5 5 5 5 4 6 5 7 5 3 0 2 2 2 2 1 1 1 3 5 5 5 5 5 6 6 5 6 7 6 6 5 4 5 5 4 5 5 4 4 5 4 6 6 6 5 4 4 5 4 5 5 5 5 6 6 7 6 6 7 6 6 6 6 6 6 7 6
2 5 3 5 5 6 7 8 9 10 5 10 12 9 7 9 8 7 2 4 2 4 7 5 6 7 6 6 4 3 4 5 3 4 4 7 7 9 4 2 2 2 3 2 2 3 4 6 7 7 7 7 6 7 5 6 5 7 7 6 5 5 5 5 4 5 3 4 5 4 4 4 5 6 5 4 4 4 4 4 5 5 6 6 6 7 6 6 6 7 7 7 6 6 6 7 7
4 8 9 10 7 6 4 7 3 4 3 6 11 7 4 2 2 2 2 3 3 6 6 4 6 6 4 4 4 3 5 3 3 2 4 4 4 8 6 4 5 4 2 3 4 5 5 7 7 7 6 5 6 6 5 5 5 6 6 6 5 5 4 5 5 4 4 4 4 4 4 4 5 5 5 4 5 5 5 5 5 5 6 6 6 6 6 6 6 6 6 6 6 6 6 6 7
9 9 8 8 7 7 6 9 7 5 2 4 10 5 1 4 4 1 3 3 3 7 5 4 4 4 4 3 3 3 4 3 3 3 5 4 5 7 7 6 5 3 3 3 4 5 7 7 7 6 6 6 6 5 5 6 6 6 6 6 5 4 4 5 5 4 4 4 4 4 4 4 4 4 4 4 5 5 6 6 6 6 6 6 6 6 6 6 6 6 7 6 5 5 6 7 6
6 10 6 3 6 4 2 5 3 3 2 5 8 8 8 5 4 3 2 3 5 6 5 4 4 3 3 3 3 3 2 2 2 3 3 2 3 3 7 4 7 5 3 5 6 7 6 5 7 5 5 5 6 5 5 4 5 6 6 5 4 4 5 5 5 4 4 4 4 4 4 4 3 4 4 4 4 5 5 6 6 6 5 6 6 6 7 6 7 7 8 7 8 7 8 7 7
7 5 6 3 3 1 3 2 3 5 3 8 3 1 4 3 3 2 3 6 6 7 4 3 3 3 3 2 3 2 2 2 2 2 2 2 3 3 4 4 7 6 5 5 6 5 3 3 4 4 5 6 5 4 4 6 5 6 6 5 4 5 4 5 3 4 4 4 4 4 4 4 4 3 4 4 5 6 6 6 6 6 6 5 6 7 7 6 6 7 6 6 8 8 7 7 7
5 1 4 3 2 2 3 3 3 6 2 5 1 2 4 2 2 3 4 6 7 6 3 3 3 3 2 1 2 2 1 0 2 1 2 2 2 2 5 6 6 6 5 4 6 5 4 3 3 4 4 5 5 4 5 5 4 6 6 5 5 4 3 4 4 3 4 5 6 6 4 4 4 4 4 5 5 6 6 6 6 6 6 6 6 6 6 6 6 6 6 7 6 8 7 7 7
2 4 1 1 4 1 3 2 7 5 2 3 7 4 3 4 3 4 4 5 6 6 4 4 3 3 2 2 3 2 2 1 1 1 2 3 2 4 6 7 7 6 6 6 5 5 5 3 4 5 4 5 4 5 4 6 7 6 5 5 5 4 4 5 4 3 5 4 5 4 4 4 4 4 4 4 5 5 6 6 6 6 5 6 6 6 6 7 6 6 6 6 7 8 8 8 6
1 2 1 2 2 2 1 3 5 5 3 2 1 3 2 1 4 3 4 6 5 5 4 4 4 3 2 3 3 3 2 2 1 3 2 2 5 6 7 7 7 8 7 7 7 6 5 4 4 4 5 5 4 5 5 5 7 6 5 6 5 4 4 3 1 1 3 4 4 5 4 4 4 5 4 4 5 5 5 6 6 6 5 6 6 6 7 6 6 6 7 6 5 6 8 8 7
3 1 2 3 5 2 2 1 2 4 5 1 1 5 1 2 4 4 3 7 6 5 5 4 4 3 6 4 4 4 3 3 4 3 3 4 6 7 6 6 6 6 5 6 6 7 6 4 4 4 3 4 4 5 5 5 5 5 5 5 4 4 2 1 1 3 4 3 3 3 3 4 4 5 5 4 4 4 4 5 5 6 5 6 6 6 6 6 6 6 6 6 6 7 7 7 7
6 3 1 1 1 7 5 5 4 7 0 7 4 6 4 4 3 4 3 5 6 6 6 6 5 4 5 5 4 4 4 4 4 4 6 6 7 6 6 6 6 6 6 7 6 4 4 3 3 3 4 5 6 5 4 5 5 5 4 5 5 3 2 1 1 3 2 3 4 3 3 4 4 5 5 4 5 5 5 5 5 4 5 6 6 7 7 7 7 7 6 6 5 7 6 6 5
7 8 5 4 5 3 4 5 5 8 3 6 6 6 6 5 3 3 2 3 6 5 4 4 3 3 4 5 4 4 4 4 4 6 7 7 6 7 6 6 5 6 6 5 5 4 4 4 5 4 3 5 6 5 5 5 5 5 5 4 4 3 2 2 2 1 2 4 3 3 3 4 4 5 5 5 5 5 5 5 5 4 5 6 7 8 7 7 8 8 8 7 7 7 9 8 8
3 4 4 4 4 1 2 5 7 6 5 2 4 7 7 6 6 6 5 3 3 4 5 5 4 3 4 5 5 5 4 6 6 6 7 6 6 5 6 7 6 5 5 5 5 5 5 4 6 5 2 4 7 6 4 6 6 3 3 2 2 0 1 1 1 1 2 2 2 3 3 4 4 4 4 5 6 5 5 5 5 5 5 6 6 6 5 6 6 6 5 6 8 8 9 9 11
7 6 6 2 2 2 2 5 8 4 5 1 5 8 5 7 5 6 4 4 5 6 6 6 6 4 4 7 7 6 4 3 6 5 5 5 5 6 6 7 6 7 4 5 5 5 4 5 6 4 3 4 6 7 5 4 4 6 6 5 2 1 1 2 1 2 2 3 4 3 3 3 4 4 4 4 5 5 6 6 5 5 5 6 6 5 6 7 7 8 6 7 6 7 7 9 10
3 6 5 5 4 1 3 5 4 1 7 3 6 7 5 5 7 5 7 7 4 5 8 8 7 6 5 6 7 7 4 6 5 6 5 6 6 6 5 5 5 7 5 5 5 5 4 6 5 4 4 5 6 7 6 5 2 2 3 3 4 1 1 0 2 2 3 5 4 3 3 4 4 4 4 4 5 5 6 6 5 5 5 5 6 7 7 8 8 9 9 7 6 5 6 7 10
6 6 6 7 5 4 1 0 3 5 3 7 4 6 3 3 3 6 6 7 3 4 6 6 6 8 9 9 9 9 7 9 8 8 7 6 6 5 6 6 6 6 6 4 4 6 5 5 4 4 4 4 5 5 6 5 4 1 2 3 1 1 1 0 3 3 3 3 2 2 3 4 5 5 5 5 5 6 6 6 5 6 6 5 6 7 7 8 8 8 8 9 5 8 6 8 8
2 6 4 3 5 4 5 4 3 2 7 6 8 4 1 3 4 3 4 5 3 3 4 5 5 6 8 8 8 9 10 11 10 8 6 6 6 6 8 8 6 7 6 5 4 5 5 5 5 5 5 5 4 4 5 5 5 4 3 3 2 2 2 3 4 4 3 4 3 5 3 4 5 6 5 5 5 6 5 5 6 6 7 6 6 7 7 7 7 7 7 8 9 6 7 5 8
3 4 6 6 7 7 6 7 5 4 1 3 6 3 2 4 7 9 5 3 6 4 5 7 7 6 6 9 10 6 8 9 13 11 10 9 8 6 7 7 6 6 6 5 5 6 6 4 4 4 3 4 4 4 4 6 5 5 3 3 2 2 3 3 5 4 3 4 4 0 3 4 5 5 5 6 6 6 7 6 6 7 6 6 6 6 6 6 7 8 7 7 8 6 5 8 7
5 4 7 10 11 10 9 7 5 2 3 4 2 3 3 1 7 7 4 6 8 4 7 8 7 9 8 9 9 7 10 8 9 9 9 9 7 8 6 6 7 7 5 5 6 6 6 5 4 4 4 2 3 4 4 6 5 4 5 5 4 4 3 1 1 1 4 2 1 3 4 4 5 6 5 5 6 6 6 6 6 6 6 6 6 6 6 6 7 6 6 7 6 6 6 9 8
3 5 8 11 12 13 9 6 4 2 2 1 1 3 1 2 7 7 8 9 9 9 9 9 8 9 10 9 8 8 10 11 11 11 11 10 9 10 9 8 7 8 6 7 7 6 6 5 5 4 3 3 3 4 5 6 6 4 5 4 4 4 3 3 3 3 3 3 3 3 4 4 4 5 6 5 6 6 6 6 6 6 6 6 6 6 6 5 6 6 6 6 6 6 6 7 6
5 7 10 12 12 9 7 6 2 1 5 1 4 2 1 3 6 5 9 8 8 11 11 10 9 8 10 10 8 10 12 13 13 12 11 10 9 8 9 9 8 7 7 8 7 7 6 5 4 3 3 3 3 5 5 5 6 6 6 5 4 3 3 3 1 2 3 2 4 2 4 4 5 5 5 6 5 6 6 6 6 6 6 5 5 6 5 6 7 7 7 8 7 7 6 5 6
1 7 4 7 7 5 6 4 4 1 2 4 5 5 3 5 1 5 6 9 11 12 13 12 11 10 10 11 8 11 11 11 12 13 12 10 9 10 9 9 8 8 7 7 7 6 5 4 4 4 4 4 4 4 6 5 4 4 4 4 5 4 2 1 2 3 2 2 4 2 3 5 5 6 5 5 6 6 6 6 6 6 6 6 5 6 5 6 6 7 7 6 6 6 5 6 6
12 8 10 8 6 4 3 6 4 3 0 6 6 8 4 2 4 9 9 10 16 10 7 9 10 10 11 11 10 12 12 12 11 11 10 10 9 11 9 10 8 6 6 8 6 5 5 4 4 5 5 4 4 5 5 5 4 4 5 5 5 4 4 3 3 2 1 2 4 2 3 4 4 5 5 5 6 6 6 5 5 5 5 5 6 6 5 5 5 5 6 6 6 6 6 6 6
13 4 6 8 4 4 4 2 3 1 3 6 5 9 8 3 4 5 13 6 8 13 14 14 13 13 12 11 11 13 13 13 12 11 10 10 8 8 8 8 8 8 7 8 7 5 5 4 5 6 4 4 4 5 5 5 5 4 4 5 5 5 4 4 4 5 3 4 4 4 3 5 4 5 4 5 5 6 6 5 5 5 5 5 6 5 5 5 5 5 5 5 6 5 5 6 5
7 9 8 8 1 1 0 2 1 2 4 2 2 9 2 8 10 6 14 10 9 13 13 16 16 15 14 13 13 12 11 14 13 12 11 11 12 11 9 8 7 8 9 9 8 7 6 5 6 7 5 4 5 4 5 5 4 4 4 5 5 4 4 4 4 4 3 4 3 4 4 6 5 5 4 6 4 5 5 6 6 5 5 5 5 5 4 5 6 5 5 4 5 5 5 5 6
10 9 6 4 2 1 1 2 1 2 5 1 2 6 3 4 8 11 14 16 13 15 14 15 16 17 16 15 13 12 11 14 13 13 13 13 12 11 11 10 9 10 9 10 8 7 6 6 7 7 7 5 5 5 5 5 5 5 5 5 6 4 5 4 4 4 4 4 5 5 5 6 5 5 5 5 5 5 5 5 6 5 4 5 5 5 4 4 5 5 4 4 4 3 4 5 6
6 5 7 7 6 4 3 3 3 4 4 1 2 2 4 2 4 4 14 15 13 13 14 14 16 16 15 14 13 12 11 12 13 13 13 13 13 13 12 10 10 10 10 10 8 8 6 7 7 7 7 5 5 6 5 6 6 5 5 6 7 5 5 5 6 5 5 4 3 4 4 5 6 4 6 5 5 6 5 6 6 5 5 5 5 5 4 4 4 5 4 3 3 4 4 5 6
0 3 5 5 4 6 1 4 4 2 2 1 1 3 4 5 4 3 2 5 9 11 12 11 12 11 11 11 12 12 11 13 13 13 12 13 13 12 10 10 11 10 10 9 9 8 7 8 7 8 8 7 6 5 5 6 6 5 4 4 5 5 3 3 3 2 3 4 4 5 5 5 5 6 5 6 4 6 6 6 6 4 4 5 4 4 4 4 4 5 5 5 4 2 5 5 4
3 2 1 6 4 7 4 1 1 3 4 3 2 4 4 6 5 3 2 7 7 8 11 12 12 13 13 13 13 12 11 13 13 14 13 13 11 11 12 11 10 10 10 10 10 9 9 9 8 8 7 6 6 6 6 5 5 4 4 4 4 4 4 5 6 5 5 4 5 5 6 5 5 6 6 5 6 5 5 6 5 4 4 5 4 4 4 4 4 4 5 4 4 4 6 4 4
6 1 8 1 2 6 4 2 2 2 2 3 1 4 4 1 2 2 3 5 6 9 12 14 13 14 15 14 13 14 14 15 15 15 15 16 15 14 12 11 12 12 12 10 10 9 9 9 9 9 7 7 6 6 5 5 5 5 5 4 3 5 6 5 4 5 4 5 4 5 5 6 5 6 6 5 6 6 5 6 5 4 4 4 4 3 4 4 4 5 4 4 2 5 5 4 3
7 5 4 4 1 0 3 4 0 0 1 2 3 1 3 5 4 0 4 8 6 7 10 12 12 14 15 14 14 12 12 11 12 13 12 13 13 13 13 13 11 11 11 11 10 10 9 8 9 9 10 9 9 6 5 5 5 5 4 5 4 4 4 4 4 4 4 6 6 6 6 6 5 5 7 6 6 6 6 4 5 5 4 4 3 2 3 4 4 4 4 5 4 5 5 4 3
2 2 1 0 4 2 1 3 3 5 1 1 4 2 3 5 5 9 10 9 8 6 8 12 15 16 14 14 14 13 14 14 13 13 14 14 14 14 14 14 13 12 12 11 10 8 9 9 9 8 8 7 6 6 6 6 5 5 4 4 4 4 4 4 4 5 5 6 6 6 6 5 6 5 6 6 6 6 5 5 4 5 5 4 4 2 2 3 3 4 4 5 3 4 5 4 3
1 1 1 2 0 2 4 1 1 3 4 3 2 1 4 5 6 8 11 9 9 11 12 11 12 14 15 15 15 14 15 14 14 14 14 14 13 12 12 12 12 10 10 10 10 10 9 8 9 9 10 8 8 8 6 6 5 5 4 5 5 4 5 4 4 4 5 6 6 6 6 6 5 5 5 6 6 6 6 6 5 5 5 4 4 3 2 3 4 4 3 3 4 4 4 3 3
7 7 6 7 2 1 1 3 2 2 3 3 3 3 6 9 2 8 10 11 9 8 12 12 12 13 13 13 14 15 14 15 15 15 14 13 13 12 11 11 10 10 10 11 11 9 9 9 10 10 9 8 9 8 7 7 5 5 5 5 5 5 5 4 5 3 5 6 6 6 6 5 6 4 5 7 6 5 5 6 6 5 5 4 4 2 2 3 4 4 4 3 3 3 4 3 2
Wind_Direction
323 313 275 250 102 105 59 355 58 307 63 268 281 332 175 1 67 97 96 185 66 18 26 58 56 43 92 115 107 85 33 85 276 148 188 114 114 94 94 106 105 87 73 44 24 30 40 80 90 98 101 99 96 96 97 93 92 91 89 87 85 84 82 79 77 75 72 71 72 72 73 74 73 72 68 66 65 64 64 63 63 60 62 60 58 61 65 59 55 48 40 47 45 54 47 51 50
281 316 282 190 198 81 317 146 107 352 34 9 327 145 258 68 63 62 80 80 95 133 85 89 88 95 103 121 132 101 48 35 54 79 76 94 95 83 97 92 92 91 76 38 34 30 39 75 98 100 100 99 98 96 95 95 91 89 85 82 80 79 78 78 76 72 68 65 67 70 71 71 70 69 68 66 64 63 62 61 59 57 57 62 59 51 46 57 49 46 40 40 37 52 58 59 46
31 10 352 57 29 94 185 60 68 149 85 30 295 11 51 67 77 84 90 101 119 122 108 92 85 58 86 78 45 43 111 352 48 56 85 119 101 99 91 57 53 71 73 57 44 34 38 104 102 99 97 97 97 96 94 89 85 81 80 79 78 78 77 77 75 71 66 61 60 62 66 67 67 66 65 66 64 60 58 57 56 55 52 53 62 64 54 49 50 41 38 36 34 36 46 50 47
62 44 121 61 0 6 62 31 110 140 120 190 71 329 76 96 84 78 85 115 128 132 121 51 54 326 82 73 102 70 96 116 22 68 106 83 57 106 80 117 114 55 53 70 55 45 65 105 99 95 96 98 96 95 91 87 85 84 84 83 82 80 79 78 76 72 67 62 59 59 61 64 64 62 61 61 61 58 55 51 51 51 47 45 41 41 41 41 39 37 34 33 36 38 43 48 44
76 306 153 69 106 340 97 202 177 120 144 209 147 257 87 91 97 90 77 78 94 103 102 127 85 24 58 73 348 74 141 117 67 36 81 60 47 49 298 153 94 117 89 57 38 37 105 102 96 99 98 97 96 90 87 87 85 83 83 81 82 81 80 79 76 73 68 64 59 57 59 62 64 64 60 58 57 56 54 52 49 48 46 44 42 41 37 35 28 25 25 28 30 35 37 40 34
76 35 351 83 144 212 26 0 315 334 226 173 143 155 119 109 104 107 96 77 64 69 98 92 123 155 56 38 3 56 16 84 126 60 70 77 90 25 353 33 30 38 71 40 23 18 80 99 95 95 94 93 88 86 85 83 84 84 82 81 80 80 79 77 74 73 71 67 62 58 56 56 58 60 60 58 54 52 52 50 47 44 41 39 39 38 37 34 29 24 14 14 26 28 24 25 14
134 59 10 33 332 65 140 199 278 197 341 111 119 113 98 119 124 116 116 94 55 67 63 111 119 117 88 103 65 32 19 56 80 56 48 127 100 69 51 338 190 89 105 117 68 45 79 90 89 89 89 87 87 86 87 86 84 84 83 80 79 77 76 74 73 71 70 68 64 62 59 55 56 55 57 57 55 52 50 49 45 42 39 34 32 31 31 30 24 25 20 15 1 11 10 357 346
261 115 222 95 295 64 344 217 240 164 3 33 60 99 85 102 104 68 38 86 298 90 8 135 133 93 57 47 110 34 41 40 81 108 106 106 103 97 104 194 125 104 101 98 40 0 95 86 87 87 87 89 87 87 86 85 86 82 80 77 74 72 72 72 70 71 69 68 66 66 62 60 58 55 52 51 50 47 46 45 44 41 38 33 26 24 22 18 16 21 20 10 358 346 339 334 321
355 75 297 70 350 1 20 347 308 265 103 74 74 82 88 89 97 107 74 80 99 52 89 145 163 81 105 96 78 70 58 50 111 114 96 94 95 95 82 326 95 85 62 61 52 52 43 85 82 83 87 88 90 89 86 84 81 80 78 74 73 71 71 68 69 69 69 68 68 66 65 63 57 53 49 47 45 43 40 38 36 33 27 22 15 13 14 6 9 10 12 2 353 346 333 320 319
13 90 292 145 138 310 50 313 87 11 75 42 77 79 85 70 74 79 118 85 100 99 22 45 62 109 127 97 101 76 81 25 3 61 71 71 83 76 82 22 54 67 52 53 49 20 90 97 96 98 97 97 92 88 86 83 80 76 73 70 69 67 68 68 67 68 68 67 67 64 63 61 57 54 49 46 43 39 35 31 30 28 22 15 12 4 2 2 360 357 357 354 344 340 330 322 321
24 339 184 57 37 329 62 46 71 62 51 46 64 66 73 80 89 85 83 109 199 104 148 86 70 103 108 90 66 96 113 161 93 80 75 118 107 71 42 15 54 52 62 56 56 50 28 94 111 104 102 97 91 86 84 81 77 73 72 71 69 70 68 69 68 66 67 68 65 64 63 60 55 50 48 45 45 42 37 33 29 26 21 15 10 5 358 357 354 349 346 343 337 331 321 316 319
21 310 45 120 215 154 215 107 93 70 57 55 39 24 336 81 81 91 101 103 118 95 36 87 137 140 81 116 122 106 103 81 94 113 98 49 59 58 82 39 47 44 35 32 42 41 43 22 28 92 96 91 87 86 83 78 77 77 75 74 75 72 72 70 68 66 68 68 65 64 60 55 51 46 42 38 33 34 34 29 26 23 18 12 4 357 354 349 348 346 340 333 327 322 315 312 312
187 164 115 103 243 92 152 113 119 93 64 6 132 338 334 66 82 111 100 106 107 87 21 60 145 106 106 101 111 120 101 156 159 178 130 116 55 75 53 41 48 49 38 37 52 39 35 28 27 7 56 67 76 87 83 77 80 80 77 72 70 71 72 70 67 66 61 61 65 63 54 47 41 38 35 27 22 19 18 17 13 11 6 2 354 347 343 340 337 334 332 330 324 320 314 311 309
163 182 127 275 20 97 92 99 50 89 40 188 118 9 4 74 25 213 141 69 11 51 275 119 93 106 92 123 129 115 122 177 181 155 124 113 81 36 50 35 45 40 29 43 52 40 26 21 32 23 21 11 18 30 46 75 76 81 77 71 65 62 61 66 63 60 53 55 55 57 54 42 35 28 23 22 13 11 7 11 5 355 350 347 344 344 334 330 328 322 318 319 319 316 313 308 306
211 195 90 131 12 72 52 117 149 116 173 229 219 75 80 26 294 5 65 101 27 330 91 43 196 79 204 155 157 150 160 173 140 131 131 128 110 89 78 76 64 36 25 44 48 40 16 17 27 41 40 35 26 45 40 36 80 78 79 81 69 66 64 61 61 62 58 57 56 53 50 36 25 15 16 5 360 358 358 360 359 354 349 354 10 25 24 18 7 352 335 318 309 308 305 301 300
196 89 94 70 24 101 61 99 104 95 199 210 199 165 86 12 2 359 321 234 151 3 18 10 1 159 130 125 137 136 150 169 166 133 123 111 98 86 86 90 79 54 47 44 35 26 24 28 27 47 55 42 36 48 54 51 75 83 88 94 98 84 77 75 65 63 65 59 49 52 48 32 9 356 358 3 353 358 358 3 17 31 30 28 24 21 22 19 14 11 14 10 350 329 313 300 296
190 81 339 22 33 76 330 126 129 149 193 202 217 288 109 100 336 49 6 33 77 35 49 2 32 26 90 116 124 126 137 149 133 115 96 81 74 58 61 58 72 50 41 33 22 5 1 16 358 30 21 27 28 352 12 350 47 70 58 84 91 72 71 72 64 48 40 19 37 30 29 13 2 346 352 12 26 35 58 49 46 43 35 28 24 20 17 16 13 10 16 17 16 9 1 340 311
136 161 132 61 166 59 335 122 146 149 140 191 196 205 121 130 111 147 59 45 76 68 69 58 61 66 92 106 111 115 119 121 128 104 94 96 88 91 70 61 73 67 35 23 3 347 355 10 342 342 11 354 348 342 0 4 7 42 22 10 34 55 49 43 32 32 27 19 14 8 7 354 9 354 20 53 43 45 48 47 42 39 32 27 21 18 14 13 10 7 14 14 12 12 5 9 8
146 97 83 140 143 38 121 128 116 116 159 148 150 215 122 150 146 200 82 116 93 83 62 78 88 86 91 94 96 99 109 119 128 125 122 121 114 124 114 88 84 94 62 29 337 332 338 311 301 269 230 346 348 353 3 1 57 46 34 34 37 50 62 58 51 42 39 35 33 29 30 35 34 25 53 62 59 51 46 43 35 29 25 24 23 17 13 12 9 6 13 10 8 14 12 13 5
242 107 82 91 159 104 77 114 142 138 142 121 109 66 82 180 151 128 125 132 86 120 131 109 120 125 118 112 105 106 105 112 121 119 115 109 118 127 126 131 106 50 83 50 335 315 309 283 257 263 26 358 10 337 8 25 26 41 48 47 61 62 61 63 53 48 40 38 36 34 33 40 38 31 51 52 49 41 33 29 29 27 22 20 26 18 11 9 11 8 10 9 2 8 7 5 12
12 71 148 162 185 85 17 87 94 91 108 112 102 112 73 19 91 119 142 95 38 236 237 179 155 140 124 118 116 115 117 112 104 96 81 54 63 100 134 108 104 111 59 51 329 300 286 268 296 333 359 11 24 46 67 62 55 58 63 80 73 67 65 59 55 51 42 38 36 36 36 45 39 38 48 49 43 40 34 32 23 23 21 20 20 22 15 7 11 9 6 2 1 356 8 6 14
85 95 137 132 118 76 69 94 100 102 98 96 93 87 126 319 37 58 137 121 177 211 251 129 140 137 130 130 132 125 116 113 111 96 117 149 158 161 109 107 93 94 141 112 174 277 284 316 353 357 14 6 44 80 89 91 82 69 73 79 69 49 55 55 55 49 39 36 36 33 35 37 40 44 43 43 39 31 33 24 24 22 28 25 17 21 17 12 7 6 4 4 356 357 5 12 16
82 15 72 84 98 111 100 87 71 96 87 82 82 73 68 73 76 9 73 64 55 356 83 113 124 128 120 119 126 114 113 113 113 117 124 123 117 49 25 67 111 108 335 156 219 267 301 337 0 3 58 72 81 109 89 69 66 73 77 77 76 57 53 56 50 47 39 35 35 36 42 36 43 49 47 44 43 35 39 30 32 34 36 26 16 23 15 10 6 2 3 2 4 16 11 16 9
104 104 101 81 93 94 104 94 96 87 87 75 105 76 89 102 74 346 66 8 24 11 67 99 105 100 106 104 106 115 105 97 96 99 88 113 92 101 198 133 118 115 116 138 257 325 349 350 355 66 85 89 73 64 63 59 56 66 72 74 72 79 74 65 54 55 45 35 33 36 54 57 54 52 49 50 43 44 41 42 39 39 34 26 16 31 18 9 6 4 3 3 6 12 21 15 10
109 117 120 113 87 103 100 101 92 84 77 88 78 74 51 80 105 95 58 43 53 60 69 78 82 85 83 91 99 102 100 83 85 92 98 82 95 103 323 4 99 108 119 136 117 74 20 12 40 59 77 79 72 69 66 58 60 65 69 73 72 74 64 61 58 49 48 35 34 35 45 57 55 59 56 45 46 46 36 37 38 35 32 20 23 22 22 10 8 5 8 4 5 5 8 14 11
80 124 116 105 110 116 114 88 86 89 80 95 86 90 99 109 101 61 62 74 54 67 69 77 84 75 75 89 102 108 102 98 98 85 90 111 127 118 183 168 138 126 142 129 104 60 44 75 76 81 84 80 74 68 58 56 54 68 70 81 84 70 68 65 58 49 36 45 31 33 42 71 72 76 70 47 53 37 33 27 32 24 24 14 23 22 9 19 9 8 11 15 11 5 8 2 20
122 113 114 114 125 98 63 98 96 106 114 128 112 128 147 257 92 121 17 93 95 70 70 58 82 83 75 80 86 81 91 93 107 124 85 84 113 122 128 144 139 141 115 91 70 70 80 78 79 85 84 84 77 75 66 63 62 70 77 90 80 79 72 66 58 51 33 30 30 37 46 66 80 79 77 65 54 49 42 37 26 22 23 12 18 20 14 19 15 17 11 16 18 12 9 0 17
111 115 86 78 76 81 104 92 114 109 50 119 117 121 95 5 55 153 142 90 83 93 73 74 79 90 95 81 75 73 79 99 120 109 113 110 121 121 133 141 133 114 110 95 85 86 76 77 81 79 84 83 79 72 69 67 68 78 83 83 86 84 78 69 59 44 27 16 29 47 58 68 80 69 69 63 60 47 39 35 24 26 17 13 21 24 23 17 20 13 16 20 25 30 22 18 12
109 101 83 63 80 83 115 132 196 105 137 159 132 84 39 7 112 145 122 113 93 88 82 74 84 89 77 69 68 68 83 96 87 106 122 119 115 122 126 136 129 123 122 121 106 91 96 96 90 85 88 86 90 84 81 82 78 74 81 90 88 80 72 70 63 44 26 17 40 53 60 59 49 65 50 46 47 49 41 35 30 28 21 17 20 20 27 18 23 20 17 9 21 25 29 19 18
88 47 112 63 19 36 230 90 108 102 178 176 131 40 296 94 130 164 124 114 101 88 85 84 84 89 85 74 87 79 59 75 82 122 147 149 148 144 126 144 129 126 130 107 93 91 101 99 103 105 100 99 94 94 84 75 72 78 82 88 85 76 67 75 64 45 29 36 60 67 69 65 62 51 64 49 46 51 47 43 40 32 27 28 25 21 24 19 23 27 14 25 20 24 23 17 22
100 133 58 133 97 245 213 151 162 112 172 173 85 142 244 195 179 155 129 126 115 110 108 95 106 104 111 109 120 137 217 242 182 151 151 168 161 167 138 131 120 119 107 93 96 106 98 109 114 95 97 90 90 87 88 84 77 80 82 82 83 85 77 78 71 42 45 58 65 57 60 62 55 54 51 67 52 56 55 46 41 39 38 37 33 22 29 21 27 28 20 28 25 26 20 22 17
71 67 282 315 125 273 254 249 147 141 196 130 84 79 206 199 195 175 148 119 114 118 127 132 141 163 116 144 163 162 203 244 216 186 192 186 180 153 141 131 126 122 123 119 108 108 103 96 88 99 92 100 106 108 90 80 83 84 91 93 90 90 86 87 79 66 73 73 74 65 57 61 60 57 56 57 57 48 56 54 43 44 46 46 35 25 32 28 18 30 25 33 36 27 21 14 13
19 115 238 202 101 208 99 251 193 158 113 32 144 174 112 234 219 163 154 124 128 124 139 150 167 161 129 168 177 174 159 185 157 214 185 153 136 133 132 130 136 136 131 121 120 118 115 111 108 112 112 108 95 81 80 79 84 86 87 92 87 70 67 91 94 86 77 79 69 69 64 63 56 57 57 57 62 46 46 55 43 48 50 53 42 31 34 27 28 26 29 30 49 41 27 13 7
277 74 172 213 157 175 200 257 163 158 130 141 55 114 219 169 172 164 129 141 133 137 156 173 179 176 169 176 172 168 167 162 176 168 151 124 105 112 124 134 132 124 108 119 129 130 137 135 125 124 118 98 105 112 96 82 83 85 89 86 80 72 59 29 27 43 38 25 25 31 58 72 70 63 54 54 59 54 54 54 49 47 51 51 48 41 34 29 32 29 31 24 34 41 33 20 357
205 169 144 254 114 172 178 154 220 143 305 113 79 78 112 138 162 163 154 146 139 162 171 183 190 177 166 160 160 162 166 155 159 156 129 113 103 107 119 127 125 108 120 124 120 117 106 98 85 65 69 78 88 85 75 79 81 65 53 65 63 65 41 11 17 44 32 47 37 31 53 63 69 63 56 48 55 45 45 40 49 45 54 56 51 45 36 29 30 27 36 27 31 47 38 20 357
190 171 165 160 139 197 184 226 171 149 117 109 137 146 147 158 171 188 171 160 151 174 175 189 211 175 160 159 165 162 165 147 164 146 127 119 124 118 114 115 114 121 125 124 117 102 90 71 63 55 81 109 101 90 87 79 72 75 79 50 52 51 37 53 13 35 14 65 74 61 44 46 50 59 55 54 54 52 49 45 47 42 52 59 54 47 40 35 29 24 24 28 29 34 31 17 3
129 101 102 167 159 277 229 162 174 142 93 129 149 134 147 171 180 191 189 152 158 162 180 194 212 181 167 163 172 178 164 157 169 143 129 126 121 116 111 119 121 120 124 116 108 106 103 99 96 97 81 100 115 112 111 115 106 80 73 84 122 325 112 29 3 335 43 39 57 58 63 53 47 48 53 53 46 50 53 48 49 39 47 58 59 55 50 49 41 35 29 29 32 35 26 13 7
137 120 120 137 167 203 223 161 159 175 108 129 140 133 164 177 184 194 187 155 197 191 190 195 203 195 180 170 174 182 175 130 135 113 113 112 117 109 103 119 125 116 121 119 123 126 109 101 105 116 94 97 118 126 130 120 151 153 148 176 190 219 127 109 64 27 45 49 61 57 44 43 49 46 54 58 51 56 55 51 46 39 44 59 64 56 53 50 46 42 33 38 26 41 37 15 8
99 139 149 136 243 218 33 126 125 83 89 169 158 137 175 180 183 193 183 191 198 197 193 191 185 195 184 174 177 179 144 149 139 133 132 136 133 112 109 123 129 134 139 136 139 112 102 104 117 124 118 105 116 125 123 143 148 162 126 197 176 246 282 13 89 42 69 69 50 56 67 65 62 54 48 53 59 53 60 58 45 41 43 52 60 49 46 44 43 41 39 46 28 30 43 23 22
129 111 124 184 202 132 94 260 93 24 129 164 160 118 157 163 184 198 199 187 203 192 197 197 184 184 182 180 175 181 159 156 151 151 154 150 141 123 122 128 136 129 129 137 134 114 112 117 126 129 129 119 120 133 139 142 134 141 124 115 52 117 180 19 86 76 96 98 88 91 51 68 66 57 53 61 60 55 61 62 54 48 48 53 66 61 50 51 46 45 44 42 47 46 24 19 26
250 161 152 166 175 202 153 184 84 54 37 106 102 57 59 161 170 238 235 207 206 207 189 209 211 191 181 179 176 178 165 161 155 159 155 151 146 145 144 146 143 137 144 147 128 131 136 148 154 153 150 147 139 128 123 119 103 83 61 41 38 32 24 26 46 37 52 79 65 47 31 62 65 60 61 63 66 64 57 57 60 56 56 51 60 62 56 51 51 51 49 52 46 58 38 20 21
184 242 189 171 126 118 111 113 99 27 27 297 136 47 284 227 204 202 200 187 217 217 190 207 205 195 167 181 189 167 166 163 159 164 162 161 159 148 145 146 146 143 148 151 139 140 140 151 148 151 139 141 137 140 149 120 123 120 95 104 91 56 74 78 97 117 89 93 106 211 49 64 70 66 67 67 65 63 57 55 57 60 58 55 59 66 64 58 54 54 46 56 54 43 69 45 28
141 224 156 143 134 128 133 135 89 111 152 243 107 127 260 305 219 215 187 188 212 218 208 207 193 191 182 184 193 161 163 158 157 155 158 158 163 148 150 154 153 149 159 143 138 143 144 155 171 162 161 149 132 146 133 116 116 136 151 158 164 164 153 245 240 190 132 174 154 91 81 59 72 80 67 72 69 65 63 56 58 63 64 63 63 66 63 61 59 58 50 53 54 55 48 59 42
199 192 162 130 127 141 150 129 113 195 176 59 93 108 161 285 248 209 184 187 206 215 218 209 193 191 187 186 187 159 160 159 158 162 165 164 163 156 160 163 153 158 148 136 139 145 153 165 170 171 163 159 167 142 131 139 139 148 140 149 163 162 170 188 193 185 180 165 114 99 80 67 71 79 81 71 69 68 66 60 60 60 62 62 68 66 70 66 64 56 58 55 51 51 57 63 54
196 173 161 149 148 149 136 120 106 138 108 286 256 241 25 247 267 176 168 193 214 218 212 210 199 190 185 189 181 160 161 162 160 164 167 168 164 160 157 157 163 146 140 145 153 163 162 168 160 134 142 139 153 153 149 147 142 155 149 153 155 193 176 191 184 125 146 140 113 103 86 80 78 70 76 81 70 68 68 68 63 64 63 60 68 69 68 71 72 67 56 50 50 45 47 56 59
132 140 70 77 87 83 114 112 95 34 84 258 222 175 163 280 265 149 182 199 213 213 208 203 198 186 184 186 172 161 160 163 167 167 165 167 163 159 163 154 149 152 154 155 156 158 155 154 134 146 153 152 159 152 151 142 144 142 134 153 155 196 203 188 126 142 144 136 131 128 105 93 89 78 71 75 77 70 67 66 66 66 67 67 68 72 73 66 65 68 68 68 61 60 42 50 65
117 105 91 63 44 59 29 52 75 56 8 247 188 174 147 289 239 181 161 215 208 190 196 199 195 189 185 181 168 166 163 166 169 166 164 163 161 158 157 152 154 144 154 152 159 166 154 148 145 153 173 170 158 150 145 154 160 158 157 169 168 185 207 171 141 144 94 110 121 139 110 98 89 91 85 72 77 73 66 65 71 69 66 66 67 69 70 73 65 67 68 68 65 64 52 50 48
124 112 115 84 34 10 22 1 32 94 268 264 180 167 168 172 289 223 212 217 186 180 190 189 191 190 185 183 176 173 164 167 164 157 154 151 150 158 155 148 150 148 148 157 169 163 152 154 152 159 178 181 164 156 155 161 163 167 167 175 182 197 186 183 184 189 202 166 154 145 121 99 91 86 84 85 72 73 73 63 65 66 68 70 69 73 72 71 69 64 59 68 68 62 55 54 49
85 106 102 117 197 47 291 10 340 231 207 285 79 132 83 241 235 209 217 215 185 188 189 187 188 187 184 184 179 176 167 160 162 158 155 159 159 163 161 157 152 148 160 166 171 163 156 159 159 157 190 189 174 164 169 168 167 178 185 196 205 199 198 197 198 207 206 179 181 149 125 120 119 95 94 92 82 82 84 74 65 66 65 65 72 70 67 69 69 66 66 62 63 69 69 63 57
133 138 142 88 116 104 201 252 238 314 283 201 123 165 226 250 284 218 208 210 194 189 191 188 185 185 183 181 181 176 170 160 163 161 162 163 164 166 164 164 163 158 169 169 167 160 164 166 168 163 186 188 183 182 182 181 195 193 198 201 211 205 211 204 210 202 203 187 186 162 148 141 135 134 121 106 114 99 85 86 83 75 74 71 72 71 66 62 67 72 71 70 65 66 67 61 55
197 164 140 174 147 156 204 183 190 205 208 299 262 110 235 140 248 218 203 199 189 189 190 188 187 184 181 176 176 174 166 161 162 164 167 168 168 166 167 167 165 164 171 167 165 166 165 167 173 175 181 199 188 194 192 195 205 203 199 203 205 203 204 206 213 199 182 165 169 134 130 132 131 139 121 124 112 102 98 88 88 83 79 76 69 64 60 55 54 57 55 62 66 67 66 63 56
273 144 76 85 228 141 137 211 152 188 139 71 185 211 185 180 251 320 241 176 175 183 192 182 181 178 171 167 175 175 165 164 165 166 168 170 167 166 165 166 166 165 171 170 169 168 165 173 179 180 183 194 196 192 203 200 210 211 193 189 210 198 192 191 171 160 157 158 155 138 136 135 135 127 126 121 115 110 105 97 90 93 90 81 73 74 69 65 59 63 52 54 49 45 63 55 61
253 84 210 208 172 110 94 22 36 77 53 238 188 307 307 299 343 24 132 162 174 173 185 181 177 171 169 175 176 174 165 166 165 169 170 168 167 170 171 166 165 167 171 177 174 173 173 175 179 185 193 194 197 194 202 208 209 203 207 191 186 184 175 195 164 165 160 153 140 139 135 139 132 129 127 124 120 107 109 103 99 97 89 90 84 78 80 76 69 62 66 60 52 42 62 55 64
77 105 241 194 80 112 124 186 338 60 169 251 3 217 290 35 243 306 143 160 182 175 181 184 172 164 172 178 177 174 170 173 171 170 169 169 171 172 174 171 167 172 175 179 179 176 176 176 180 184 193 198 207 197 202 208 208 213 216 215 197 177 183 197 172 159 148 132 130 132 132 134 145 140 130 131 124 121 108 105 106 100 97 88 91 91 91 86 76 68 74 69 57 60 60 53 54
142 195 193 96 284 334 326 92 296 135 264 279 315 261 255 171 240 308 206 185 194 185 182 173 165 168 177 177 176 170 161 158 162 166 168 172 172 175 176 175 169 172 178 180 181 176 175 182 184 185 192 200 201 200 196 202 198 205 206 211 209 206 190 181 182 161 148 137 145 152 152 149 139 137 128 128 123 115 115 115 112 105 96 94 78 70 83 85 89 80 75 76 51 63 67 63 35
300 87 60 203 102 159 135 205 175 113 219 69 284 48 234 218 212 196 201 199 182 161 164 177 175 174 173 174 171 163 164 168 167 169 174 176 176 176 176 172 172 173 177 182 182 178 180 187 187 193 198 199 201 203 198 199 207 200 208 209 220 195 198 185 189 171 150 151 157 154 148 144 153 140 129 126 125 128 129 124 117 111 102 96 84 65 80 76 70 84 91 73 57 71 71 70 48
310 67 241 316 275 210 109 42 123 173 168 174 189 323 282 265 217 182 199 197 181 165 174 176 179 176 173 171 170 168 168 169 172 172 174 176 175 176 178 176 173 169 174 180 183 185 186 186 192 195 195 200 203 207 199 207 199 210 206 204 211 213 218 209 201 192 141 156 154 152 151 148 132 136 131 126 131 137 135 130 124 118 114 103 90 80 79 83 80 81 68 78 66 78 79 57 74
174 168 200 179 126 243 106 282 350 96 95 196 128 238 268 271 162 187 193 198 172 172 161 172 178 178 170 171 172 167 170 173 173 174 172 173 173 175 173 174 172 170 175 183 187 188 190 190 194 196 197 198 201 207 202 206 202 204 212 217 215 212 216 206 201 167 142 154 155 151 148 137 135 141 133 131 136 139 134 132 126 125 126 118 117 122 109 97 97 78 56 55 74 72 77 76 69